OICK  Khoram Abad Airport

Add Bookmark

Iran

Status IATA
Operational KHD
Latitude Longitude
33° 26' 7" N 48° 16' 58" E
33.435398 48.282902
Local (DST + 5) UTC (GMT + 4)
Jul 30, 2014 11:43 Jul 30, 2014 19:13
Sunrise-Sunset Local UTC
Begin Civil Twilight 05:59 01:29
Sunrise 06:26 01:56
Sunset 08:19 15:49
End Civil Twilight 08:47 16:17

Current Weather

METAR Observed VFR
OICK 301750Z 00000KT CAVOK 32/02 Q1007 Wed, Jul 30, 2014 @ 17:50 UTC
(1 Hour, 23 Minutes ago)
Visual Flight Rules

Decoded METAR

Wind Visibility Clouds Conditions
Calm 10 km or more
  • Clear skies
  • No significant weather
Temperatures Readings Precipitation
Current Temp 32°C (90°F)
Dewpoint 2°C (36°F)
Humidity 15%
Altimeter 29.73"Hg
Sea Level Pressure 1007mb
Field Elevation 3789.37'
None Recorded

Additional weather within a 185.2km radius of OICK

Map ICAO Location
OIHM 106.3km N (027°)
OICC 144.8km N (315°)
OIHH 161.3km N (009°)
OICI 174.8km W (276°)
OIAI 184.1km S (150°)

24 Hour Weather History

Loading
-

24 Hour Weather Graphs

Loading
-

CheckWX.com is intended as a tool to help pilots better visualize weather data. It is not intended as a substitute for an official weather briefing obtained from a Flight Service Station. CheckWX.com does not meet the FAA requirements for an official pre-flight weather briefing. Therefore, it's important that pilots still call and obtain an official FSS pre-flight weather briefing.